Zurück zum Katalog

COSMOS 1275 DEB

AktivPO
NORAD 14556·DEBRIS·🇷🇺 Russia

Gestartet Jun 4, 1981 von Plesetsk Cosmodrome

Loading…

Nächste Überflüge (nächste 24 Stunden)

TLE

AktuellSource: Space-Track

Epoche: Sep 14, 2026, 08:05 UTC

1 14556U 81053JL  26257.33730647  .00000704  00000-0  72557-3 0  9993
2 14556  83.0109 272.7372 0127550  68.1394 350.8782 13.71128195124328

Verfolge COSMOS 1275 DEB in Echtzeit mit AllMySat

Download on the App Store